User: anonymous
Location: Albany
(35.0000°S, 118.0000°E)
Time: 23:34:21
(UTC-04:00)
Language:

TRMM - Orbit

View from above orbital plane
View from above orbital plane
View from above satellite
View from above satellite

Ground track
Ground track

The orbit data is extracted from the following two-line orbital elements,

1 25063U 97074A   14233.80717293  .00017215  00000-0  23026-3 0  7230
2 25063 034.9553 066.0108 0001839 312.5919 123.0779 15.57076175954921
Epoch (UTC): 21 August 2014 19:22:19
Eccentricity: 0.0001839
inclination: 34.9553°
perigee height: 395 km
apogee height: 397 km
right ascension of ascending node: 66.0108°
argument of perigee: 312.5919°
revolutions per day: 15.57076175
mean anomaly at epoch: 123.0779°
orbit number at epoch: 95492

The dashed part of the orbit path shows where the satellite is in the earth's shadow,  

DLR